Dewpoint
40 40 39 39 38 38 39 38 39 39 38 38 38 37 36 35 33 32 32 32 32 31 32 32 32 33 35 37 37 37 36 37 38 37 38 38 38 39 41 42 42 42 41 42 42 42 41 42 42 42 43 43 43 44 44 44 44 44 45 46 47 47 48 48 48 51 55 62 61 59 59 59 59 59
41 40 38 38 37 38 37 37 39 39 38 38 37 37 38 37 34 34 32 32 34 34 34 33 32 33 34 35 37 37 36 38 37 36 36 37 37 39 41 41 40 41 41 41 40 40 41 42 42 42 42 42 42 43 43 43 43 43 44 46 45 44 46 47 47 49 53 58 60 59 58 59 58 58
40 39 38 38 37 38 37 37 37 38 39 38 37 37 37 37 37 36 35 32 33 35 33 34 34 34 34 34 35 36 35 36 36 36 37 34 38 40 38 39 40 40 41 40 41 41 40 41 41 42 42 41 42 42 42 42 42 43 44 43 43 44 45 45 47 49 51 55 60 60 59 59 59 59
39 38 37 38 37 37 36 37 37 36 37 38 37 37 37 37 37 37 35 33 32 34 34 34 35 33 34 34 33 33 34 34 38 35 36 34 38 35 34 38 39 40 40 40 41 41 42 40 41 42 41 41 41 41 41 41 42 42 42 42 43 43 43 44 46 48 49 51 57 60 59 59 59 59
39 39 37 37 38 37 36 36 36 36 36 36 36 37 36 35 36 35 35 33 32 34 35 35 34 34 35 33 33 32 33 33 33 35 35 35 35 34 34 34 37 39 39 39 40 40 40 40 42 41 42 42 41 41 41 42 42 42 42 42 42 42 43 43 44 45 47 48 51 58 59 58 58 58
40 38 37 37 37 38 35 36 34 35 34 34 34 34 35 34 34 35 34 33 33 32 33 33 33 33 34 31 31 32 33 33 34 32 32 33 33 33 33 33 34 38 39 39 39 40 40 40 41 40 40 40 41 41 41 41 41 42 42 40 39 42 42 43 43 43 45 46 49 52 58 57 58 58
38 37 38 37 37 37 34 35 35 36 35 35 34 35 35 35 35 35 35 34 33 32 32 33 32 32 32 33 30 30 32 34 33 31 31 30 30 32 33 34 34 36 38 39 39 40 40 40 40 40 40 40 40 40 41 41 41 40 41 40 41 41 41 42 42 42 44 46 48 50 55 57 58 59
37 36 36 36 37 36 33 33 34 35 35 35 35 35 35 35 34 35 36 35 34 33 32 33 30 31 31 31 30 30 32 31 32 31 31 31 31 31 30 31 33 34 38 39 39 40 40 40 40 40 40 40 40 40 40 40 40 40 40 41 41 40 40 41 41 41 43 45 47 48 50 56 59 60
38 38 36 36 37 35 33 34 33 34 35 35 36 35 34 34 35 35 35 35 34 33 32 32 31 31 30 31 32 31 30 31 30 32 32 30 31 32 32 33 33 38 38 39 39 39 39 39 40 40 40 40 40 40 40 40 40 40 40 40 40 40 40 40 41 41 42 44 45 48 51 53 58 60
39 38 37 36 37 35 34 34 35 36 35 36 36 35 35 34 35 35 35 34 34 33 31 31 30 31 30 30 31 31 31 30 30 30 31 32 33 32 33 32 33 34 35 36 37 39 39 39 39 40 40 39 39 39 39 39 40 40 40 40 40 40 40 40 40 40 41 43 43 45 47 50 56 59
39 38 38 39 38 36 36 36 36 37 37 37 37 37 36 35 35 35 34 33 33 32 31 30 30 29 30 31 29 29 31 31 31 30 30 30 31 33 32 32 32 33 35 37 39 38 39 39 39 38 39 39 40 40 39 40 40 40 41 40 40 40 40 40 41 41 41 42 43 43 44 46 51 59
39 39 39 39 38 38 37 39 40 39 38 38 37 36 37 36 36 34 33 32 31 30 29 29 28 28 28 29 30 31 31 30 30 31 30 30 30 31 32 33 33 34 35 36 37 38 38 38 38 39 39 39 40 39 39 39 39 39 40 40 40 40 40 40 41 41 41 41 42 42 43 44 45 52
38 39 41 40 39 43 39 40 42 40 39 39 37 37 37 37 35 34 33 31 30 29 29 28 28 28 28 28 28 28 28 28 29 30 31 30 31 31 32 33 34 35 36 36 35 35 37 36 37 37 36 36 38 38 39 39 39 39 40 39 39 40 40 40 40 40 41 41 42 42 42 43 44 45
39 38 38 42 39 39 39 41 40 38 38 39 38 38 38 36 35 34 33 30 29 29 28 27 27 27 27 27 29 29 30 30 31 30 31 30 30 31 33 33 35 37 37 36 35 34 36 36 35 35 34 35 37 36 36 36 37 38 38 39 39 39 39 39 40 40 41 41 41 41 41 41 43 44
42 40 37 38 39 39 40 41 39 37 37 37 37 38 38 37 36 34 33 31 31 29 28 28 28 27 27 28 29 29 29 30 30 30 31 31 31 31 31 32 34 37 37 35 34 34 36 35 33 33 34 34 35 35 35 37 38 38 39 39 39 39 40 40 40 40 40 41 41 41 41 41 42 43
40 39 39 38 37 38 40 39 37 37 37 37 37 36 36 35 35 35 34 32 30 30 29 28 28 28 28 28 29 29 30 30 30 31 31 30 31 31 32 34 34 35 37 35 34 33 34 34 34 33 34 34 35 35 36 37 38 38 39 39 39 39 39 39 40 40 40 40 40 40 40 40 40 41
37 38 40 37 38 37 39 38 36 36 36 37 37 36 36 34 35 33 32 33 33 32 31 30 29 28 28 28 29 30 31 32 31 31 30 31 32 33 35 36 35 36 36 34 33 31 32 33 33 33 34 34 35 35 36 37 38 38 38 38 38 39 39 39 39 39 39 39 40 40 40 40 40 41
37 38 38 37 37 37 36 37 38 36 36 36 35 33 32 32 32 32 32 32 32 32 32 31 29 30 31 30 31 32 33 32 31 30 30 32 32 34 36 37 37 37 36 34 33 32 32 33 33 32 33 34 35 36 36 37 37 38 38 38 38 38 39 39 39 39 39 39 39 39 40 40 40 40
38 38 37 37 38 36 35 38 37 37 36 36 34 33 32 31 30 31 32 32 32 32 32 31 31 31 32 32 33 33 33 33 33 32 33 33 34 36 37 37 36 34 34 35 34 31 32 33 33 33 33 34 35 35 36 37 38 38 38 38 38 38 38 39 39 39 39 39 39 39 39 39 39 40
36 37 38 38 37 35 35 37 36 37 38 35 32 32 31 30 30 30 32 32 33 34 33 33 33 33 33 33 35 35 33 33 33 33 33 33 35 36 36 33 34 33 34 36 34 32 32 33 33 33 34 35 35 36 36 37 38 38 38 38 38 38 38 38 38 38 39 39 39 39 39 39 39 39
37 37 39 39 36 35 35 37 35 36 38 34 32 31 31 30 30 29 30 32 32 32 33 33 32 32 32 33 33 33 33 33 34 33 31 32 35 36 34 34 33 33 34 34 35 34 33 33 33 33 34 35 35 36 36 37 37 38 38 38 38 38 38 38 39 39 39 39 39 39 39 39 39 40
35 37 39 40 37 36 36 36 35 36 38 34 32 31 30 29 28 28 30 31 32 32 32 32 32 32 32 32 32 32 33 33 34 32 30 32 36 35 35 34 34 34 34 34 36 35 33 33 33 33 33 33 35 35 35 36 37 37 37 37 38 38 38 38 38 39 39 39 39 39 39 39 39 42
33 34 36 38 37 36 37 35 35 35 36 34 33 32 30 29 28 29 31 31 31 31 30 30 31 31 32 32 32 33 33 33 35 33 32 33 36 35 35 35 35 33 33 35 37 34 34 33 33 34 33 32 32 35 35 35 35 36 37 37 37 38 38 38 39 39 39 39 39 39 39 39 39 43
34 33 33 37 35 35 35 35 35 35 35 35 34 32 31 30 29 31 31 32 32 31 30 30 31 31 32 31 31 31 32 33 33 33 33 34 37 36 36 36 35 33 34 36 39 35 35 34 33 33 34 31 30 33 33 33 36 37 38 38 40 40 40 39 39 39 39 39 39 39 39 39 39 42
32 32 33 33 36 35 35 35 35 35 35 35 36 34 32 32 33 33 31 31 32 30 31 30 30 30 29 29 29 29 29 30 31 32 33 35 37 37 36 35 35 35 36 37 38 36 33 35 33 34 33 33 32 30 31 32 34 36 38 38 39 41 43 43 42 42 39 39 39 39 39 39 39 41
32 33 32 34 36 35 35 35 35 35 35 34 36 34 32 33 32 32 32 31 30 28 28 28 28 28 27 27 27 28 28 28 30 31 33 34 36 37 38 38 36 34 35 38 37 36 34 33 34 33 33 32 30 31 31 32 34 36 39 40 41 41 43 43 44 44 43 43 41 38 38 39 39 40
32 32 34 35 36 35 35 35 35 35 35 35 34 32 32 33 32 32 30 30 29 28 28 28 28 28 27 27 27 27 27 28 30 30 32 34 35 36 36 38 39 39 39 38 39 38 35 34 36 34 32 32 31 31 32 32 33 37 37 38 40 41 44 44 45 46 46 45 44 41 39 38 38 39
33 33 33 35 34 35 35 35 35 35 34 33 33 33 33 33 33 30 30 28 29 28 27 27 27 27 27 27 27 27 28 29 30 31 32 34 35 36 35 35 37 40 39 39 38 38 37 35 35 35 34 32 31 30 30 33 35 36 36 37 39 41 44 45 45 45 46 47 47 45 43 42 40 40
37 35 35 34 34 34 35 35 34 34 34 33 33 33 33 34 30 30 28 29 29 27 27 27 28 27 27 27 28 29 30 31 31 31 32 34 35 36 35 34 35 37 38 38 38 37 37 36 34 35 34 34 32 32 32 32 34 35 37 36 36 39 42 45 46 46 46 47 47 45 43 43 42 42
35 34 34 34 35 35 35 36 34 32 33 33 33 33 33 31 30 30 28 29 28 27 26 27 27 27 27 27 28 30 30 29 28 29 30 33 34 35 34 33 32 34 37 39 38 37 37 37 36 35 34 33 33 31 32 32 33 35 36 36 36 39 42 40 44 47 47 47 46 45 45 45 44 43
34 34 36 35 34 34 34 34 33 32 33 33 32 30 30 31 30 31 30 30 29 28 27 28 27 27 28 29 29 28 28 28 28 28 30 32 33 35 34 32 31 32 34 37 39 37 37 37 37 36 34 33 32 33 33 34 33 34 35 36 36 33 37 39 42 46 47 47 46 46 45 45 45 43
35 35 34 33 33 32 32 31 30 30 31 31 31 30 30 30 30 31 31 31 29 29 28 28 28 28 29 28 28 27 27 27 27 28 29 31 32 33 34 32 31 32 33 34 36 37 36 37 37 37 37 34 32 32 32 32 32 33 34 35 36 36 37 37 38 41 44 44 42 41 43 45 45 45
34 31 31 31 31 30 29 28 29 29 29 30 30 31 31 30 30 30 29 29 28 29 28 28 28 28 28 28 28 28 27 28 27 28 28 30 31 33 33 32 31 31 31 32 34 34 35 36 37 37 37 35 34 33 31 30 31 33 33 34 35 35 36 37 37 38 41 41 40 40 39 39 39 42
31 31 30 30 30 30 29 28 27 28 28 28 28 29 30 30 29 30 29 29 28 29 29 28 28 28 29 28 28 28 27 28 28 28 28 29 30 32 33 32 31 31 31 32 33 33 33 34 35 36 36 36 34 35 34 31 30 31 32 33 34 34 35 36 37 37 37 38 38 36 36 36 37 39
27 26 26 28 28 28 28 26 27 27 27 26 27 28 29 30 29 29 29 30 28 28 28 29 29 29 29 28 29 28 28 28 28 27 28 28 29 30 32 32 32 31 31 31 32 33 34 33 32 32 32 31 33 35 36 35 32 31 31 33 33 33 34 35 36 36 36 36 37 34 34 34 35 36
27 27 28 28 29 28 27 28 26 27 27 27 28 27 26 28 28 29 28 29 29 28 28 28 27 28 28 28 29 28 28 28 27 27 28 28 29 29 30 32 32 32 31 31 31 32 33 33 33 31 30 29 29 28 29 35 35 32 31 30 32 32 33 35 35 35 35 35 35 34 31 31 33 34
27 29 29 29 30 30 28 29 29 28 29 28 29 29 27 28 29 29 30 28 29 27 28 29 28 28 28 29 28 28 28 28 28 27 28 27 28 28 30 30 31 32 30 30 30 31 32 33 33 32 30 28 27 27 28 31 34 35 33 31 31 32 32 33 34 33 35 35 34 34 33 32 33 34
28 29 29 29 29 30 30 29 29 28 28 28 28 28 28 29 29 30 30 29 29 27 28 29 28 28 28 27 28 28 28 28 28 28 27 27 28 28 29 29 31 32 31 29 30 31 32 33 32 32 31 29 28 28 27 30 31 33 34 34 31 31 32 31 31 31 31 34 34 34 35 32 33 35
30 30 29 29 29 29 29 29 28 28 29 28 28 28 28 28 29 29 29 29 29 29 28 28 28 28 28 28 27 27 27 27 27 26 27 27 27 28 28 28 30 32 31 30 29 30 31 32 32 32 32 31 30 30 31 30 30 32 33 35 34 32 32 31 30 31 31 31 32 34 34 37 36 34
30 30 30 29 29 29 29 30 29 29 29 29 29 28 28 27 28 29 29 28 28 29 29 28 28 28 28 28 27 28 28 29 28 28 28 27 27 28 28 27 29 31 31 30 29 30 30 31 32 32 33 33 32 33 32 32 32 32 32 34 35 34 33 32 31 31 31 32 34 31 30 30 30 32
27 27 28 28 29 29 29 29 29 30 30 29 29 29 28 28 29 29 29 28 28 29 27 28 28 29 28 27 27 26 26 27 28 28 27 27 26 26 27 26 26 28 30 29 30 30 30 31 31 32 33 33 33 34 31 30 30 31 31 32 34 34 34 34 33 32 31 32 32 31 30 29 29 29
27 27 27 28 28 28 29 30 30 29 29 29 29 29 28 28 28 28 29 27 29 28 26 26 26 26 26 27 26 26 26 27 27 27 27 26 26 26 26 26 25 26 28 29 30 30 31 32 32 32 32 32 31 30 30 30 30 31 31 32 32 33 34 34 34 34 34 33 32 31 30 30 29 28
27 27 27 27 28 28 28 29 29 29 29 29 29 29 28 28 27 26 26 27 28 25 26 26 26 25 26 26 25 25 26 27 27 27 28 27 26 26 25 25 26 28 29 29 30 31 31 31 31 31 31 30 30 30 30 30 30 30 31 31 32 32 32 33 34 34 34 34 34 33 32 31 28 27
27 28 27 28 28 28 28 29 29 29 29 30 29 29 29 26 26 27 27 26 26 26 27 26 26 26 26 26 25 26 26 26 27 27 27 27 27 26 26 26 26 27 27 27 28 29 29 30 30 31 29 29 30 30 30 30 30 30 30 31 31 32 32 32 32 33 33 33 33 33 34 34 33 33
26 27 27 27 27 28 28 29 29 30 30 29 29 29 27 26 26 27 27 26 26 26 26 26 26 26 26 26 25 27 27 28 28 26 26 27 27 27 26 26 25 26 25 26 27 28 28 28 28 29 29 29 29 29 30 30 30 30 30 31 31 31 31 31 31 32 32 32 33 33 33 33 33 33